ONEWEB-0094 (45450 NORAD) Tracking and Keplerian Element Data

This shows tracking and keplerian element data for the satellite.

Feedback or suggestion? Click here.




ElementValue
Catalog45450
NameONEWEB-0094
Epoch Orbit3232
Epoch Day297.91667824
Epoch Year2020
RAAN70.3118
Inclination87.576
Eccentricity0.0024904
Argument of Perigee236.4735
Mean Anonmoly162.5726
Mean Motion14.90384465
Decay Rate-0.00024299
L11 45450U 20020AC 20297.91667824 -.00024299 00000-0 -24968-2 0 9994
L22 45450 87.5760 70.3118 0024904 236.4735 162.5726 14.90384465 32325

Live tracking and technical data element details for ONEWEB-0094 (NORAD 45450). ONEWEB-0094 can be tracked NOW for your location showing map with azimuth and elevation plus other details from your city location.

Track the satellite on the map from your city or location and see movement details for azimuth, elevation, latitude, longitude, range, height, and movement on the map or in text.







IsCatalogInMostPopularTable: catalog: 45450, numindb: 49
Update: records affected: 1



GetName: 45450 ONEWEB-0094

Hit Count: updated at: Sat, 24 Oct 2020 23:07:16 GMT